Lid_Strength_Index
-0 0 1 0 0 0 0 0 1 1 1 1 1 1 2 2 2 1 1 1 1 1 1 1 1 1 4 9 8 3 -1 -0 3 4 7 7 8 9 10 10 10 10 10 8 8 9 9
-0 -0 0 1 1 1 1 1 1 1 1 1 1 1 2 2 2 2 2 2 2 1 1 1 1 1 8 12 6 4 5 5 6 7 8 8 8 8 10 10 10 11 10 9 9 9 9
-0 -0 -0 -0 0 0 0 1 1 1 1 1 1 2 2 2 2 2 2 2 2 2 2 2 2 3 8 10 7 6 6 7 7 8 8 8 8 8 10 11 9 10 11 11 10 10 10
0 0 0 0 0 1 1 1 1 1 1 1 2 3 3 3 3 3 2 2 2 3 3 2 2 5 12 6 8 7 8 8 8 8 8 8 8 9 10 9 11 13 12 14 12 11 11
-1 -0 0 1 1 1 1 1 1 1 2 2 3 3 3 3 3 3 3 3 3 2 2 2 6 9 11 5 8 7 8 9 9 8 9 7 8 11 11 13 15 15 16 15 13 11 11
-1 -1 -1 -0 0 0 1 1 1 1 2 2 2 3 3 3 3 2 2 2 3 3 3 3 5 10 9 10 8 8 9 8 10 10 10 10 12 13 13 15 17 16 17 15 15 13 13
0 0 0 0 0 0 0 1 1 1 2 2 2 2 3 2 2 2 4 7 10 11 9 12 11 11 10 8 7 9 8 9 9 11 14 13 15 16 13 13 12 16 16 16 14 12 13
1 1 1 1 1 1 1 2 1 1 1 2 2 2 2 2 2 2 6 8 9 9 12 10 10 9 8 8 10 9 8 10 11 14 13 15 16 13 12 13 14 14 15 15 13 12 14
1 1 1 1 1 1 1 1 1 1 1 2 2 2 2 2 2 5 8 9 6 7 13 12 10 11 11 8 11 10 9 11 13 14 14 14 13 12 13 14 15 15 15 15 15 14 15
1 1 1 1 1 2 2 2 2 2 2 2 2 2 3 3 5 7 9 7 7 8 18 15 13 11 10 10 13 11 11 12 13 14 14 15 12 13 14 14 13 15 13 14 15 17 18
2 2 2 2 3 3 3 2 2 2 2 2 2 2 3 3 7 8 7 7 8 11 21 14 13 9 10 13 13 13 12 12 15 14 14 15 15 15 15 13 13 14 14 15 16 18 18
3 3 3 3 3 3 3 3 2 1 2 2 3 3 3 4 7 7 7 7 10 16 21 15 13 13 14 13 13 13 14 13 14 15 15 15 14 14 14 14 14 14 15 16 18 18 20
4 4 4 4 4 4 4 3 3 2 3 3 3 3 4 4 7 6 7 8 13 18 13 15 15 14 15 15 14 15 16 16 16 18 19 17 16 16 14 15 15 15 16 21 22 23 21
4 5 5 5 5 4 4 4 4 4 4 3 3 3 4 4 5 6 6 9 17 13 14 12 12 14 14 14 14 15 17 17 16 16 18 19 18 16 14 14 16 16 15 18 23 22 18
4 4 5 5 6 5 5 5 6 5 5 4 3 3 4 4 5 5 8 15 14 12 10 11 10 13 14 14 14 15 17 17 15 15 16 18 17 15 15 14 14 17 18 14 18 25 23
5 5 5 5 5 5 5 5 6 5 4 4 4 4 5 3 4 6 10 13 11 10 9 9 13 12 15 14 13 15 15 15 14 14 13 15 17 15 16 15 15 15 14 18 19 21 23
6 6 6 6 6 6 6 5 5 5 5 3 3 6 5 3 3 7 13 12 10 8 8 10 11 12 13 13 11 13 13 13 12 14 12 13 14 15 16 16 15 16 16 16 15 17 18
6 6 7 7 6 7 6 6 5 5 4 4 5 9 3 3 9 9 11 10 8 8 7 8 9 10 11 11 12 13 13 11 9 9 11 11 12 16 14 13 14 14 14 13 16 17 17
5 5 5 6 5 6 6 6 6 5 4 5 6 7 3 3 12 11 9 9 8 9 9 9 10 9 9 11 14 12 11 8 7 8 11 10 14 17 16 13 12 15 14 14 14 15 16
5 4 4 4 4 4 5 5 5 5 5 6 7 10 6 5 6 9 10 11 11 8 9 8 9 8 10 12 10 12 11 9 8 8 7 8 12 15 17 14 12 13 14 14 14 16 16
4 4 4 4 5 5 4 4 5 5 5 6 9 11 7 11 10 9 9 10 11 11 8 8 10 10 11 13 12 12 11 10 8 7 8 10 15 14 13 12 12 12 13 12 13 12 15
3 3 3 3 3 3 3 3 4 4 4 8 10 10 8 9 9 9 9 10 11 10 9 10 11 9 9 12 11 13 11 12 12 9 10 10 15 13 15 13 13 14 12 12 12 12 12
3 3 3 3 3 3 3 3 3 3 3 9 8 8 8 11 12 13 11 10 10 9 8 8 9 10 10 9 9 9 8 8 9 10 11 11 13 15 17 14 14 17 13 13 12 11 12
2 3 3 3 3 3 3 3 3 3 3 7 8 7 9 14 12 12 11 11 12 11 10 9 9 10 9 8 8 10 10 9 10 10 8 12 13 13 16 14 20 13 10 10 12 11 10
2 2 1 2 2 2 3 3 3 3 3 5 7 7 9 15 12 13 12 12 12 12 11 11 10 8 8 11 14 20 19 18 14 11 11 9 11 15 17 17 14 13 12 14 14 14 14
2 2 2 2 1 1 2 2 2 2 2 6 6 6 8 12 15 12 13 12 17 16 15 12 10 10 10 13 19 23 25 20 20 15 12 11 12 14 16 19 20 16 15 13 13 16 13
2 2 1 1 1 1 1 1 1 0 1 3 6 4 7 11 10 11 13 14 11 13 18 18 16 14 12 16 28 27 25 15 22 22 21 22 20 19 17 18 15 13 12 12 18 19 14
1 1 1 1 1 -0 -0 -0 -0 -0 0 1 4 3 6 9 9 9 9 11 11 14 18 17 16 17 16 19 23 17 20 16 18 16 18 18 19 21 19 23 20 12 13 18 15 12 13
1 1 0 0 0 -0 -0 -0 -0 -0 0 0 5 3 2 7 9 6 7 6 6 8 11 16 15 19 14 19 22 21 24 22 22 26 15 20 16 20 16 16 12 11 11 10 10 13 13